Hawk 6B

operational
NORAD ID: 55324 Int'l Des: 2023-011 Owner: HE360 Country: US
LEOCIRCULAR

Hawk 6Bについて

説明を読み込み中...

リアルタイム位置

3D地球を読み込み中...

次回通過

高度履歴

Altitude vs Time

uPlot chart will show altitude changes over time

軌道要素

1 55324U 23011A 26063.48895218 .00009868 00000-0 43330-3 0 9995
2 55324 40.5118 242.2591 0002870 349.9866 10.0886 15.21824001171889
Epoch: Mar 4, 2026 • Age: 20 hours

現在のステータス

高度 503.0 km
速度 7.62 km/s
衛星直下点 37.73°N, 107.96°W
打ち上げ日 Jan 24, 2023
運用期間 3.1 years
タイプ other

技術仕様

分類 Payload
質量 31.00 kg
乾燥質量 30.00 kg
総質量 31.00 kg
長さ 0.45 m
直径 0.30 m
スパン 1.00 m
形状 Box + 2 pan
製造者 UTIAS
バスタイプ Hawk2G
フェーズステータス In Orbit
所有者/国 HE360/US

大規模コンステレーション

Loading constellations...